When you browse on this site, cookies collect data to enhance your experience and personalize the content and advertising you see.
Visit our Privacy Policy to learn more. By continuing to use the site, you agree to this use of cookies and data.

Stündliche Wetter Cudnochy

Heute, 5 Juli, Sonntag

Zeit Temperatur Niederschläge Wind Luftdruck Luftfeuchtigkeit
00:00 +18°C° 0 mm 4 m/S 748 mmHg 82%
01:00 +19°C° 0 mm 4 m/S 747 mmHg 74%
02:00 +18°C° 0.1 mm 4 m/S 747 mmHg 77%
03:00 +18°C° 0.1 mm 3 m/S 747 mmHg 81%
04:00 +18°C° 0.1 mm 3 m/S 747 mmHg 84%
05:00 +17°C° 0.4 mm 3 m/S 747 mmHg 88%
06:00 +17°C° 0.4 mm 3 m/S 747 mmHg 91%
07:00 +17°C° 0.4 mm 3 m/S 746 mmHg 95%
08:00 +19°C° 0.1 mm 4 m/S 747 mmHg 88%
09:00 +21°C° 0.1 mm 4 m/S 747 mmHg 82%
10:00 +22°C° 0.1 mm 5 m/S 747 mmHg 76%
11:00 +23°C° 0.3 mm 6 m/S 746 mmHg 76%
12:00 +23°C° 0.3 mm 6 m/S 746 mmHg 75%
13:00 +24°C° 0.3 mm 6 m/S 746 mmHg 75%
14:00 +24°C° 0.1 mm 6 m/S 746 mmHg 76%
15:00 +23°C° 0.1 mm 6 m/S 746 mmHg 76%
16:00 +23°C° 0.1 mm 5 m/S 745 mmHg 76%
17:00 +23°C° 0 mm 5 m/S 745 mmHg 79%
18:00 +22°C° 0 mm 4 m/S 745 mmHg 81%
19:00 +22°C° 0 mm 3 m/S 745 mmHg 84%
20:00 +21°C° 0.1 mm 4 m/S 745 mmHg 86%
21:00 +21°C° 0.1 mm 4 m/S 745 mmHg 88%
22:00 +20°C° 0.1 mm 4 m/S 745 mmHg 91%
23:00 +20°C° 0 mm 4 m/S 745 mmHg 91%

Morgen, 6 Juli, Montag

Zeit Temperatur Niederschläge Wind Luftdruck Luftfeuchtigkeit
00:00 +20°C° 0 mm 4 m/S 745 mmHg 91%
01:00 +19°C° 0 mm 4 m/S 745 mmHg 91%
02:00 +19°C° 0 mm 4 m/S 745 mmHg 90%
03:00 +19°C° 0 mm 3 m/S 744 mmHg 89%
04:00 +19°C° 0 mm 3 m/S 744 mmHg 88%
05:00 +19°C° 0 mm 3 m/S 744 mmHg 88%
06:00 +19°C° 0 mm 3 m/S 744 mmHg 87%
07:00 +18°C° 0 mm 3 m/S 744 mmHg 87%
08:00 +19°C° 0 mm 3 m/S 744 mmHg 85%
09:00 +19°C° 0 mm 4 m/S 744 mmHg 82%
10:00 +20°C° 0 mm 4 m/S 744 mmHg 80%
11:00 +21°C° 0.1 mm 5 m/S 744 mmHg 72%
12:00 +23°C° 0.1 mm 6 m/S 744 mmHg 65%
13:00 +24°C° 0.1 mm 7 m/S 744 mmHg 57%
14:00 +23°C° 0 mm 6 m/S 744 mmHg 59%
15:00 +22°C° 0 mm 6 m/S 744 mmHg 61%
16:00 +22°C° 0 mm 5 m/S 744 mmHg 63%
17:00 +20°C° 0 mm 4 m/S 745 mmHg 66%
18:00 +19°C° 0 mm 3 m/S 745 mmHg 70%
19:00 +18°C° 0 mm 3 m/S 745 mmHg 74%
20:00 +16°C° 0 mm 3 m/S 745 mmHg 74%
21:00 +14°C° 0 mm 3 m/S 745 mmHg 75%
22:00 +13°C° 0 mm 3 m/S 746 mmHg 75%
23:00 +13°C° 0 mm 3 m/S 746 mmHg 77%

übermorgen, 7 Juli, Dienstag

Zeit Temperatur Niederschläge Wind Luftdruck Luftfeuchtigkeit
00:00 +12°C° 0 mm 3 m/S 746 mmHg 79%
01:00 +12°C° 0 mm 3 m/S 747 mmHg 81%
02:00 +11°C° 0 mm 3 m/S 747 mmHg 83%
03:00 +11°C° 0 mm 3 m/S 747 mmHg 85%
04:00 +11°C° 0 mm 3 m/S 747 mmHg 86%
05:00 +12°C° 0 mm 3 m/S 747 mmHg 83%
06:00 +13°C° 0 mm 4 m/S 748 mmHg 79%
07:00 +14°C° 0 mm 5 m/S 748 mmHg 76%
08:00 +15°C° 0 mm 5 m/S 748 mmHg 71%
09:00 +16°C° 0 mm 5 m/S 749 mmHg 67%
10:00 +17°C° 0 mm 5 m/S 749 mmHg 63%
11:00 +17°C° 0.1 mm 5 m/S 749 mmHg 63%
12:00 +17°C° 0.1 mm 5 m/S 749 mmHg 63%
13:00 +17°C° 0.1 mm 5 m/S 749 mmHg 62%
14:00 +17°C° 0.1 mm 5 m/S 749 mmHg 64%
15:00 +17°C° 0.1 mm 5 m/S 749 mmHg 65%
16:00 +16°C° 0.1 mm 5 m/S 749 mmHg 66%
17:00 +15°C° 0 mm 4 m/S 749 mmHg 70%
18:00 +16°C° 0 mm 3 m/S 749 mmHg 74%
19:00 +14°C° 0 mm 3 m/S 750 mmHg 77%
20:00 +13°C° 0 mm 2 m/S 750 mmHg 81%
21:00 +12°C° 0 mm 2 m/S 750 mmHg 85%
22:00 +10°C° 0 mm 2 m/S 750 mmHg 88%
23:00 +9°C° 0 mm 2 m/S 750 mmHg 89%

8 Juli, Mittwoch

Zeit Temperatur Niederschläge Wind Luftdruck Luftfeuchtigkeit
00:00 +9°C° 0 mm 2 m/S 750 mmHg 90%
01:00 +9°C° 0 mm 2 m/S 750 mmHg 91%
02:00 +9°C° 0 mm 2 m/S 750 mmHg 91%
03:00 +9°C° 0 mm 2 m/S 750 mmHg 91%
04:00 +9°C° 0 mm 2 m/S 750 mmHg 90%
05:00 +10°C° 0 mm 3 m/S 750 mmHg 84%
06:00 +12°C° 0 mm 3 m/S 750 mmHg 78%
07:00 +14°C° 0 mm 4 m/S 750 mmHg 72%
08:00 +15°C° 0 mm 4 m/S 750 mmHg 67%
09:00 +17°C° 0 mm 4 m/S 750 mmHg 63%
10:00 +18°C° 0 mm 4 m/S 750 mmHg 58%
11:00 +18°C° 0.1 mm 4 m/S 749 mmHg 63%
12:00 +17°C° 0.1 mm 4 m/S 749 mmHg 68%
13:00 +17°C° 0.1 mm 4 m/S 749 mmHg 72%
14:00 +16°C° 0.1 mm 3 m/S 749 mmHg 74%
15:00 +16°C° 0.1 mm 3 m/S 749 mmHg 77%
16:00 +14°C° 0.1 mm 3 m/S 749 mmHg 79%
17:00 +13°C° 0.2 mm 3 m/S 749 mmHg 84%
18:00 +13°C° 0.2 mm 3 m/S 749 mmHg 89%
19:00 +13°C° 0.2 mm 2 m/S 749 mmHg 94%
20:00 +13°C° 0 mm 2 m/S 749 mmHg 95%
21:00 +12°C° 0 mm 2 m/S 749 mmHg 96%
22:00 +12°C° 0 mm 2 m/S 749 mmHg 97%
23:00 +12°C° 0 mm 2 m/S 749 mmHg 97%

9 Juli, Donnerstag

Zeit Temperatur Niederschläge Wind Luftdruck Luftfeuchtigkeit
00:00 +12°C° 0 mm 2 m/S 749 mmHg 98%
01:00 +12°C° 0 mm 2 m/S 749 mmHg 98%
02:00 +12°C° 0 mm 2 m/S 749 mmHg 98%
03:00 +12°C° 0 mm 2 m/S 750 mmHg 98%
04:00 +12°C° 0 mm 2 m/S 750 mmHg 98%
05:00 +13°C° 0 mm 2 m/S 750 mmHg 94%
06:00 +14°C° 0 mm 2 m/S 750 mmHg 91%
07:00 +15°C° 0 mm 2 m/S 751 mmHg 87%
08:00 +16°C° 0.1 mm 3 m/S 751 mmHg 82%
09:00 +17°C° 0.1 mm 3 m/S 751 mmHg 77%
10:00 +18°C° 0.1 mm 3 m/S 752 mmHg 72%
11:00 +19°C° 0.2 mm 4 m/S 752 mmHg 69%
12:00 +20°C° 0.2 mm 4 m/S 752 mmHg 66%
13:00 +20°C° 0.2 mm 4 m/S 752 mmHg 62%
14:00 +20°C° 0.1 mm 4 m/S 752 mmHg 63%
15:00 +20°C° 0.1 mm 4 m/S 752 mmHg 64%
16:00 +20°C° 0.1 mm 4 m/S 752 mmHg 65%
17:00 +19°C° 0.1 mm 3 m/S 752 mmHg 71%
18:00 +17°C° 0.1 mm 2 m/S 752 mmHg 77%
19:00 +16°C° 0.1 mm 2 m/S 752 mmHg 83%
20:00 +15°C° 0 mm 2 m/S 752 mmHg 87%
21:00 +13°C° 0 mm 2 m/S 753 mmHg 90%
22:00 +12°C° 0 mm 1 m/S 753 mmHg 93%
23:00 +12°C° 0 mm 1 m/S 753 mmHg 93%

10 Juli, Freitag

Zeit Temperatur Niederschläge Wind Luftdruck Luftfeuchtigkeit
00:00 +11°C° 0 mm 1 m/S 753 mmHg 93%
01:00 +10°C° 0 mm 0 m/S 753 mmHg 92%
02:00 +10°C° 0 mm 0 m/S 753 mmHg 92%
03:00 +10°C° 0 mm 0 m/S 753 mmHg 92%
04:00 +10°C° 0 mm 0 m/S 753 mmHg 92%
05:00 +12°C° 0 mm 1 m/S 753 mmHg 87%
06:00 +14°C° 0 mm 1 m/S 753 mmHg 82%
07:00 +16°C° 0 mm 2 m/S 753 mmHg 77%
08:00 +18°C° 0 mm 2 m/S 753 mmHg 71%
09:00 +19°C° 0 mm 2 m/S 753 mmHg 64%
10:00 +20°C° 0 mm 3 m/S 753 mmHg 58%
11:00 +21°C° 0 mm 3 m/S 753 mmHg 55%
12:00 +22°C° 0 mm 3 m/S 752 mmHg 52%
13:00 +24°C° 0 mm 3 m/S 752 mmHg 50%
14:00 +24°C° 0 mm 3 m/S 752 mmHg 51%
15:00 +24°C° 0 mm 3 m/S 751 mmHg 53%
16:00 +24°C° 0 mm 3 m/S 751 mmHg 54%
17:00 +22°C° 0 mm 3 m/S 751 mmHg 61%
18:00 +21°C° 0 mm 3 m/S 751 mmHg 67%
19:00 +19°C° 0 mm 2 m/S 750 mmHg 74%
20:00 +18°C° 0 mm 3 m/S 750 mmHg 78%
21:00 +17°C° 0 mm 3 m/S 750 mmHg 81%
22:00 +16°C° 0 mm 3 m/S 750 mmHg 85%
23:00 +16°C° 0 mm 3 m/S 750 mmHg 85%
Mehr zeigen